Burlington, WA
on Friday, November 23, 2012

Friday
Previous Day Next Day
Daily Summary
 ActualAverage (KBLI)Record (KBLI)
Temperature
Mean Temperature °F 42°F  
Max Temperature 51°F 48°F 61°F (1995)
Min Temperature 44°F 35°F 10°F (1985)
Degree Days
Heating Degree Days 18 23  
Month to date heating degree days 482  
Cooling Degree Days 0 0  
Month to date cooling degree days 0  
Year to date cooling degree days 42  
Moisture
Dew Point 46°F   
Average Humidity 95    
Maximum Humidity 100    
Minimum Humidity 76    
Precipitation
Precipitation 0.30 in 0.19 in 1.78 in (1975)
Month to date precipitation 4.51  
Year to date precipitation 30.32  
Wind
Wind Speed 11 mph   
Max Wind Speed 18 mph   
Max Gust Speed 26 mph   
Visibility 8 miles   
Events     

Key: T is trace of precipitation, MM is missing value
Source: NWS Daily Summary
Time(PST)TemperatureDew PointHumidity Pressure Visibility Wind DirectionWind SpeedGust SpeedPrecipitationEvents Conditions
12:15 AM 46.4°F 41.0°F 81% 30.14 in 10.0 miles East 18.4 mph 26.5 mph 0.00 in   Overcast
12:35 AM 48.2°F 41.0°F 76% 30.15 in 10.0 miles ESE 18.4 mph 23.0 mph 0.00 in   Mostly Cloudy
1:15 AM 46.4°F 42.8°F 87% 30.15 in 7.0 miles ESE 15.0 mph 23.0 mph 0.01 in   Overcast
1:35 AM 46.4°F 44.6°F 93% 30.15 in 6.0 miles ESE 15.0 mph 23.0 mph 0.02 in   Overcast
1:55 AM 46.4°F 44.6°F 93% 30.14 in 8.0 miles SE 10.4 mph - 0.04 in   Overcast
2:15 AM 46.4°F 44.6°F 93% 30.13 in 9.0 miles SE 10.4 mph 18.4 mph 0.00 in   Overcast
2:55 AM 46.4°F 44.6°F 93% 30.11 in 5.0 miles ESE 16.1 mph 24.2 mph 0.04 in   Overcast
3:15 AM 46.4°F 44.6°F 93% 30.12 in 8.0 miles ESE 15.0 mph 23.0 mph 0.01 in   Overcast
3:35 AM 46.4°F 44.6°F 93% 30.10 in 5.0 miles ESE 15.0 mph - 0.03 in   Overcast
3:55 AM 46.4°F 44.6°F 93% 30.09 in 7.0 miles ESE 13.8 mph - 0.04 in   Overcast
4:15 AM 48.2°F 44.6°F 87% 30.07 in 10.0 miles ESE 18.4 mph 21.9 mph 0.00 in   Mostly Cloudy
4:35 AM 48.2°F 46.4°F 93% 30.07 in 10.0 miles ESE 12.7 mph 20.7 mph 0.00 in   Mostly Cloudy
4:55 AM 48.2°F 44.6°F 87% 30.07 in 9.0 miles ESE 11.5 mph - 0.00 in   Overcast
5:15 AM 51.8°F 44.6°F 76% 30.08 in 10.0 miles South 6.9 mph - 0.00 in   Overcast
5:35 AM 48.2°F 44.6°F 87% 30.09 in 10.0 miles South 9.2 mph 20.7 mph 0.00 in   Overcast
6:15 AM 48.2°F 44.6°F 87% 30.08 in 8.0 miles SE 8.1 mph - 0.01 in   Overcast
6:35 AM 48.2°F 44.6°F 87% 30.07 in 10.0 miles SE 16.1 mph 19.6 mph 0.01 in   Overcast
6:55 AM 48.2°F 44.6°F 87% 30.08 in 10.0 miles ESE 9.2 mph - 0.01 in   Overcast
7:15 AM 50.0°F 44.6°F 82% 30.09 in 10.0 miles SE 8.1 mph - 0.01 in   Overcast
7:35 AM 48.2°F 44.6°F 87% 30.09 in 6.0 miles SE 11.5 mph - 0.01 in   Overcast
7:55 AM 48.2°F 46.4°F 93% 30.08 in 8.0 miles ESE 9.2 mph 18.4 mph 0.03 in   Overcast
8:15 AM 48.2°F 46.4°F 93% 30.09 in 8.0 miles SE 11.5 mph 19.6 mph 0.00 in   Overcast
8:35 AM 50.0°F 46.4°F 87% 30.10 in 10.0 miles SE 10.4 mph 19.6 mph 0.01 in   Overcast
9:15 AM 48.2°F 48.2°F 100% 30.10 in 5.0 miles SE 9.2 mph 16.1 mph 0.01 in   Overcast
9:35 AM 48.2°F 48.2°F 100% 30.09 in 5.0 miles ESE 9.2 mph - 0.03 in   Overcast
10:15 AM 48.2°F 48.2°F 100% 30.10 in 8.0 miles East 5.8 mph - 0.00 in   Overcast
10:35 AM 48.2°F 48.2°F 100% 30.09 in 9.0 miles East 11.5 mph - 0.00 in   Overcast
10:55 AM 46.4°F 46.4°F 100% 30.09 in 10.0 miles ESE 6.9 mph - 0.00 in   Overcast
11:15 AM 48.2°F 48.2°F 100% 30.07 in 10.0 miles SE 9.2 mph - 0.00 in   Overcast
11:35 AM 51.8°F 48.2°F 88% 30.07 in 10.0 miles SSE 9.2 mph - 0.00 in   Overcast
12:15 PM 50.0°F 48.2°F 94% 30.07 in 7.0 miles South 8.1 mph 19.6 mph 0.00 in   Overcast
12:35 PM 48.2°F 48.2°F 100% 30.06 in 7.0 miles South 5.8 mph - 0.00 in   Overcast
1:15 PM 48.2°F 48.2°F 100% 30.06 in 5.0 miles South 8.1 mph - 0.02 in   Overcast
1:35 PM 48.2°F 48.2°F 100% 30.06 in 5.0 miles South 6.9 mph - 0.04 in   Overcast
1:55 PM 48.2°F 48.2°F 100% 30.04 in 10.0 miles SSE 8.1 mph - 0.04 in   Overcast
2:15 PM 48.2°F 48.2°F 100% 30.06 in 10.0 miles South 6.9 mph - 0.00 in   Overcast
2:35 PM 48.2°F 48.2°F 100% 30.05 in 10.0 miles SSE 5.8 mph - 0.00 in   Overcast
2:55 PM 48.2°F 48.2°F 100% 30.05 in 9.0 miles SSE 4.6 mph - 0.00 in   Overcast
3:15 PM 48.2°F 48.2°F 100% 30.06 in 6.0 miles SSW 6.9 mph - 0.00 in   Overcast
3:55 PM 48.2°F 48.2°F 100% 30.06 in 2.5 miles Calm Calm - 0.03 in   Overcast
4:15 PM 46.4°F 46.4°F 100% 30.06 in 3.0 miles NE 5.8 mph - 0.00 in   Overcast
4:35 PM 46.4°F 46.4°F 100% 30.06 in 6.0 miles NE 5.8 mph - 0.01 in   Overcast
5:15 PM 46.4°F 46.4°F 100% 30.05 in 8.0 miles ENE 5.8 mph - 0.00 in   Overcast
5:35 PM 44.6°F 44.6°F 100% 30.05 in 10.0 miles ENE 6.9 mph - 0.00 in   Overcast
5:55 PM 44.6°F 44.6°F 100% 30.04 in 10.0 miles ENE 8.1 mph - 0.00 in   Overcast
6:15 PM 44.6°F 44.6°F 100% 30.04 in 10.0 miles East 4.6 mph - 0.00 in   Overcast
6:35 PM 44.6°F 44.6°F 100% 30.05 in 10.0 miles NE 3.5 mph - 0.00 in   Overcast
6:55 PM 44.6°F 44.6°F 100% 30.05 in 9.0 miles NE 3.5 mph - 0.00 in   Overcast
7:15 PM 44.6°F 44.6°F 100% 30.05 in 10.0 miles NNE 4.6 mph - 0.00 in   Overcast
7:35 PM 44.6°F 44.6°F 100% 30.05 in 10.0 miles NNE 5.8 mph - 0.00 in   Overcast
7:55 PM 44.6°F 44.6°F 100% 30.06 in 10.0 miles NE 4.6 mph - 0.00 in   Overcast
8:15 PM 44.6°F 44.6°F 100% 30.06 in 10.0 miles NE 3.5 mph - 0.00 in   Overcast
8:35 PM 44.6°F 44.6°F 100% 30.06 in 9.0 miles Calm Calm - 0.00 in   Overcast
8:55 PM 44.6°F 44.6°F 100% 30.08 in 5.0 miles Calm Calm - 0.00 in   Overcast
9:35 PM 44.6°F 44.6°F 100% 30.09 in 7.0 miles Calm Calm - 0.01 in   Overcast
9:55 PM 44.6°F 44.6°F 100% 30.08 in 5.0 miles East 4.6 mph - 0.02 in   Overcast
10:15 PM 44.6°F 44.6°F 100% 30.10 in 9.0 miles Calm Calm - 0.00 in   Overcast
10:35 PM 44.6°F 44.6°F 100% 30.10 in 7.0 miles Calm Calm - 0.00 in   Overcast
10:55 PM 44.6°F 44.6°F 100% 30.11 in 7.0 miles Calm Calm - 0.00 in   Overcast
11:15 PM 46.4°F 46.4°F 100% 30.12 in 5.0 miles Calm Calm - 0.00 in   Overcast
11:35 PM 46.4°F 46.4°F 100% 30.12 in 1.2 miles Calm Calm - 0.00 in   Overcast
Moon Phase
Nov. 23 Nov. 28 Dec. 06 Dec. 13 Dec. 20
Sunrise:07:30 AM (PST) Moon Rise:01:55 PM (PST)
Sunset:04:21 PM (PST) Moon Set:02:35 AM (PST)

Copyright © 2014 The Weather Underground, Inc.